User: anonymous   Login
Location: Caltech
(34.1382°N, 118.1253°W)
Time: 20:35:27
(UTC-07:00)
Language:

Cosmos 1937 Rocket - Orbit

View from above orbital plane
View from above orbital plane
View from above satellite
View from above satellite

Ground track
Ground track

The orbit data is extracted from the following two-line orbital elements,

1 19039U 88029B   14297.56136900  .00000552  00000-0  19026-3 0  1661
2 19039 074.0481 279.1786 0024774 329.6487 169.7537 14.38058143391885
Epoch (UTC): 24 October 2014 13:28:22
Eccentricity: 0.0024774
inclination: 74.0481°
perigee height: 747 km
apogee height: 782 km
right ascension of ascending node: 279.1786°
argument of perigee: 329.6487°
revolutions per day: 14.38058143
mean anomaly at epoch: 169.7537°
orbit number at epoch: 39188

The dashed part of the orbit path shows where the satellite is in the earth's shadow,  

DLR